Time,TemperatureF,DewpointF,PressureIn,WindDirection,WindDirectionDegrees,WindSpeedMPH,WindSpeedGustMPH,Humidity,HourlyPrecipIn,Conditions,Clouds,dailyrainin,SoftwareType,DateUTC
2013-06-17 00:01:00,75.5,66.6,30.02,SW,218,1.0,6.0,74,0.00,,,0.00,VWS V14.01,2013-06-17 04:01:00,
2013-06-17 00:06:00,75.2,66.7,30.02,SW,234,2.0,2.0,75,0.00,,,0.00,VWS V14.01,2013-06-17 04:06:00,
2013-06-17 00:11:00,75.0,66.6,30.02,SSW,211,2.0,4.0,75,0.00,,,0.00,VWS V14.01,2013-06-17 04:11:00,
2013-06-17 00:16:00,74.9,66.8,30.02,SW,219,2.0,4.0,76,0.00,,,0.00,VWS V14.01,2013-06-17 04:16:00,
2013-06-17 00:21:00,74.7,66.6,30.02,WSW,240,2.0,4.0,76,0.00,,,0.00,VWS V14.01,2013-06-17 04:21:00,
2013-06-17 00:26:00,74.6,66.5,30.02,WSW,256,4.0,4.0,76,0.00,,,0.00,VWS V14.01,2013-06-17 04:26:00,
2013-06-17 00:31:00,74.6,66.5,30.02,SW,218,3.0,5.0,76,0.00,,,0.00,VWS V14.01,2013-06-17 04:31:00,
2013-06-17 00:36:00,74.5,66.8,30.02,SSW,203,4.0,4.0,77,0.00,,,0.00,VWS V14.01,2013-06-17 04:36:00,
2013-06-17 00:41:00,74.4,66.7,30.02,SSW,211,1.0,5.0,77,0.00,,,0.00,VWS V14.01,2013-06-17 04:41:00,
2013-06-17 00:46:00,74.3,66.6,30.02,WSW,239,1.0,5.0,77,0.00,,,0.00,VWS V14.01,2013-06-17 04:46:00,
2013-06-17 00:51:00,74.1,66.4,30.02,SW,234,2.0,5.0,77,0.00,,,0.00,VWS V14.01,2013-06-17 04:51:00,
2013-06-17 00:56:00,74.0,66.7,30.02,West,265,1.0,5.0,78,0.00,,,0.00,VWS V14.01,2013-06-17 04:56:00,
2013-06-17 01:01:00,73.9,66.6,30.02,SW,222,3.0,5.0,78,0.00,,,0.00,VWS V14.01,2013-06-17 05:01:00,
2013-06-17 01:06:00,73.7,66.4,30.02,WSW,246,2.0,5.0,78,0.00,,,0.00,VWS V14.01,2013-06-17 05:06:00,
2013-06-17 01:11:00,73.6,66.3,30.02,SSW,208,0.0,5.0,78,0.00,,,0.00,VWS V14.01,2013-06-17 05:11:00,
2013-06-17 01:16:00,73.6,66.3,30.02,SW,233,1.0,5.0,78,0.00,,,0.00,VWS V14.01,2013-06-17 05:16:00,
2013-06-17 01:21:00,73.5,66.2,30.02,WSW,238,0.0,5.0,78,0.00,,,0.00,VWS V14.01,2013-06-17 05:21:00,
2013-06-17 01:26:00,73.4,66.1,30.02,SSW,210,2.0,5.0,78,0.00,,,0.00,VWS V14.01,2013-06-17 05:26:00,
2013-06-17 01:31:00,73.3,66.4,30.02,WSW,238,3.0,5.0,79,0.00,,,0.00,VWS V14.01,2013-06-17 05:31:00,
2013-06-17 01:36:00,73.3,66.4,30.02,SW,215,1.0,4.0,79,0.00,,,0.00,VWS V14.01,2013-06-17 05:36:00,
2013-06-17 01:41:00,73.2,66.3,30.02,SW,221,0.0,4.0,79,0.00,,,0.00,VWS V14.01,2013-06-17 05:41:00,
2013-06-17 01:46:00,73.1,66.2,30.02,SW,218,3.0,4.0,79,0.00,,,0.00,VWS V14.01,2013-06-17 05:46:00,
2013-06-17 01:51:00,73.0,66.1,30.02,SW,214,0.0,4.0,79,0.00,,,0.00,VWS V14.01,2013-06-17 05:51:00,
2013-06-17 01:56:00,72.9,66.0,30.02,WSW,256,1.0,4.0,79,0.00,,,0.00,VWS V14.01,2013-06-17 05:56:00,
2013-06-17 02:01:00,72.9,66.0,30.02,SW,227,2.0,5.0,79,0.00,,,0.00,VWS V14.01,2013-06-17 06:01:00,
2013-06-17 02:06:00,72.8,65.9,30.02,SW,226,2.0,3.0,79,0.00,,,0.00,VWS V14.01,2013-06-17 06:06:00,
2013-06-17 02:11:00,72.8,65.9,30.02,WSW,251,3.0,3.0,79,0.00,,,0.00,VWS V14.01,2013-06-17 06:11:00,
2013-06-17 02:15:00,72.7,65.8,30.02,SSW,209,2.0,3.0,79,0.00,,,0.00,VWS V14.01,2013-06-17 06:15:00,
2013-06-17 02:21:00,72.7,65.8,30.02,SW,234,1.0,5.0,79,0.00,,,0.00,VWS V14.01,2013-06-17 06:21:00,
2013-06-17 02:25:00,72.7,66.2,30.02,WSW,237,1.0,5.0,80,0.00,,,0.00,VWS V14.01,2013-06-17 06:25:00,
2013-06-17 02:31:00,72.6,66.1,30.02,SW,226,2.0,5.0,80,0.00,,,0.00,VWS V14.01,2013-06-17 06:31:00,
2013-06-17 02:36:00,72.6,66.1,30.01,South,173,0.0,3.0,80,0.00,,,0.00,VWS V14.01,2013-06-17 06:36:00,
2013-06-17 02:40:00,72.6,66.1,30.01,WSW,239,2.0,4.0,80,0.00,,,0.00,VWS V14.01,2013-06-17 06:40:00,
2013-06-17 02:45:00,72.5,66.0,30.01,West,264,0.0,4.0,80,0.00,,,0.00,VWS V14.01,2013-06-17 06:45:00,
2013-06-17 02:50:00,72.4,65.9,30.01,SW,221,0.0,6.0,80,0.00,,,0.00,VWS V14.01,2013-06-17 06:50:00,
2013-06-17 02:55:00,72.4,65.9,30.01,WSW,237,2.0,6.0,80,0.00,,,0.00,VWS V14.01,2013-06-17 06:55:00,
2013-06-17 03:00:00,72.3,65.8,30.01,SW,227,2.0,6.0,80,0.00,,,0.00,VWS V14.01,2013-06-17 07:00:00,
2013-06-17 03:05:00,72.2,65.7,30.01,SW,221,1.0,2.0,80,0.00,,,0.00,VWS V14.01,2013-06-17 07:05:00,
2013-06-17 03:10:00,72.2,65.7,30.01,SW,214,1.0,4.0,80,0.00,,,0.00,VWS V14.01,2013-06-17 07:10:00,
2013-06-17 03:15:00,72.1,65.6,30.01,WSW,238,1.0,4.0,80,0.00,,,0.00,VWS V14.01,2013-06-17 07:15:00,
2013-06-17 03:20:00,72.1,65.6,30.01,SW,221,1.0,4.0,80,0.00,,,0.00,VWS V14.01,2013-06-17 07:20:00,
2013-06-17 03:25:00,72.1,65.6,30.01,SW,232,3.0,4.0,80,0.00,,,0.00,VWS V14.01,2013-06-17 07:25:00,
2013-06-17 03:30:00,72.0,65.5,30.01,WSW,253,2.0,6.0,80,0.00,,,0.00,VWS V14.01,2013-06-17 07:30:00,
2013-06-17 03:35:00,72.0,65.5,30.01,SW,233,3.0,3.0,80,0.00,,,0.00,VWS V14.01,2013-06-17 07:35:00,
2013-06-17 03:40:00,72.0,65.5,30.01,WSW,237,2.0,4.0,80,0.00,,,0.00,VWS V14.01,2013-06-17 07:40:00,
2013-06-17 03:45:00,71.9,65.4,30.01,WSW,238,1.0,4.0,80,0.00,,,0.00,VWS V14.01,2013-06-17 07:45:00,
2013-06-17 03:50:00,71.9,65.4,30.00,WSW,250,3.0,4.0,80,0.00,,,0.00,VWS V14.01,2013-06-17 07:50:00,
2013-06-17 03:55:00,71.9,65.4,30.00,WSW,252,1.0,4.0,80,0.00,,,0.00,VWS V14.01,2013-06-17 07:55:00,
2013-06-17 04:00:00,71.8,65.3,30.00,WSW,239,2.0,4.0,80,0.00,,,0.00,VWS V14.01,2013-06-17 08:00:00,
2013-06-17 04:05:00,71.7,65.2,30.00,WSW,240,1.0,2.0,80,0.00,,,0.00,VWS V14.01,2013-06-17 08:05:00,
2013-06-17 04:10:00,71.6,65.5,30.01,SW,218,4.0,4.0,81,0.00,,,0.00,VWS V14.01,2013-06-17 08:10:00,
2013-06-17 04:15:00,71.6,65.5,30.01,WSW,246,1.0,4.0,81,0.00,,,0.00,VWS V14.01,2013-06-17 08:15:00,
2013-06-17 04:20:00,71.5,65.4,30.01,SSW,207,1.0,4.0,81,0.00,,,0.00,VWS V14.01,2013-06-17 08:20:00,
2013-06-17 04:25:00,71.5,65.4,30.01,SW,234,2.0,4.0,81,0.00,,,0.00,VWS V14.01,2013-06-17 08:25:00,
2013-06-17 04:30:00,71.4,65.3,30.01,SW,219,2.0,4.0,81,0.00,,,0.00,VWS V14.01,2013-06-17 08:30:00,
2013-06-17 04:35:00,71.4,65.3,30.01,WSW,240,2.0,3.0,81,0.00,,,0.00,VWS V14.01,2013-06-17 08:35:00,
2013-06-17 04:40:00,71.4,65.3,30.01,WSW,237,2.0,4.0,81,0.00,,,0.00,VWS V14.01,2013-06-17 08:40:00,
2013-06-17 04:45:00,71.4,65.3,30.01,SW,225,2.0,6.0,81,0.00,,,0.00,VWS V14.01,2013-06-17 08:45:00,
2013-06-17 04:50:00,71.3,65.2,30.01,SW,226,1.0,6.0,81,0.00,,,0.00,VWS V14.01,2013-06-17 08:50:00,
2013-06-17 04:55:00,71.3,65.2,30.01,WSW,244,1.0,6.0,81,0.00,,,0.00,VWS V14.01,2013-06-17 08:55:00,
2013-06-17 05:00:00,71.2,65.1,30.01,SW,233,1.0,6.0,81,0.00,,,0.00,VWS V14.01,2013-06-17 09:00:00,
2013-06-17 05:05:00,71.2,65.1,30.01,WSW,248,0.0,1.0,81,0.00,,,0.00,VWS V14.01,2013-06-17 09:05:00,
2013-06-17 05:10:00,71.2,65.1,30.01,SW,234,2.0,2.0,81,0.00,,,0.00,VWS V14.01,2013-06-17 09:10:00,
2013-06-17 05:15:00,71.2,65.1,30.01,West,264,2.0,4.0,81,0.00,,,0.00,VWS V14.01,2013-06-17 09:15:00,
2013-06-17 05:20:00,71.2,65.1,30.01,SW,221,2.0,4.0,81,0.00,,,0.00,VWS V14.01,2013-06-17 09:20:00,
2013-06-17 05:25:00,71.2,65.1,30.01,SW,232,1.0,4.0,81,0.00,,,0.00,VWS V14.01,2013-06-17 09:25:00,
2013-06-17 05:30:00,71.1,65.0,30.01,SW,233,2.0,4.0,81,0.00,,,0.00,VWS V14.01,2013-06-17 09:30:00,
2013-06-17 05:35:00,71.1,65.0,30.01,SW,232,1.0,2.0,81,0.00,,,0.00,VWS V14.01,2013-06-17 09:35:00,
2013-06-17 05:40:00,71.1,65.0,30.01,WSW,237,0.0,2.0,81,0.00,,,0.00,VWS V14.01,2013-06-17 09:40:00,
2013-06-17 05:45:00,71.1,64.6,30.01,SW,226,1.0,2.0,80,0.00,,,0.00,VWS V14.01,2013-06-17 09:45:00,
2013-06-17 05:50:00,71.1,64.6,30.01,SW,225,0.0,2.0,80,0.00,,,0.00,VWS V14.01,2013-06-17 09:50:00,
2013-06-17 05:55:00,71.0,64.5,30.01,SW,230,2.0,4.0,80,0.00,,,0.00,VWS V14.01,2013-06-17 09:55:00,
2013-06-17 06:00:00,70.9,64.4,30.01,SSW,210,3.0,4.0,80,0.00,,,0.00,VWS V14.01,2013-06-17 10:00:00,
2013-06-17 06:05:00,70.8,64.3,30.01,SSW,206,2.0,2.0,80,0.00,,,0.00,VWS V14.01,2013-06-17 10:05:00,
2013-06-17 06:10:00,70.8,64.3,30.01,SW,231,0.0,3.0,80,0.00,,,0.00,VWS V14.01,2013-06-17 10:10:00,
2013-06-17 06:15:00,70.7,64.6,30.01,SW,219,2.0,3.0,81,0.00,,,0.00,VWS V14.01,2013-06-17 10:15:00,
2013-06-17 06:20:00,70.7,64.6,30.01,WSW,238,1.0,3.0,81,0.00,,,0.00,VWS V14.01,2013-06-17 10:20:00,
2013-06-17 06:25:00,70.7,64.6,30.01,SW,233,2.0,3.0,81,0.00,,,0.00,VWS V14.01,2013-06-17 10:25:00,
2013-06-17 06:30:00,70.8,64.7,30.01,WSW,245,0.0,4.0,81,0.00,,,0.00,VWS V14.01,2013-06-17 10:30:00,
2013-06-17 06:35:00,70.8,64.7,30.01,WSW,246,2.0,3.0,81,0.00,,,0.00,VWS V14.01,2013-06-17 10:35:00,
2013-06-17 06:40:00,70.8,64.7,30.01,WSW,248,1.0,3.0,81,0.00,,,0.00,VWS V14.01,2013-06-17 10:40:00,
2013-06-17 06:45:00,70.8,64.7,30.01,SW,236,0.0,3.0,81,0.00,,,0.00,VWS V14.01,2013-06-17 10:45:00,
2013-06-17 06:50:00,70.8,64.7,30.01,SW,236,1.0,3.0,81,0.00,,,0.00,VWS V14.01,2013-06-17 10:50:00,
2013-06-17 06:55:00,70.7,64.6,30.01,WSW,244,0.0,3.0,81,0.00,,,0.00,VWS V14.01,2013-06-17 10:55:00,
2013-06-17 07:00:00,70.8,64.7,30.00,WSW,256,1.0,3.0,81,0.00,,,0.00,VWS V14.01,2013-06-17 11:00:00,
2013-06-17 07:05:00,70.8,64.7,30.00,SSE,150,0.0,2.0,81,0.00,,,0.00,VWS V14.01,2013-06-17 11:05:00,
2013-06-17 07:10:00,71.1,65.0,30.00,WSW,242,2.0,2.0,81,0.00,,,0.00,VWS V14.01,2013-06-17 11:10:00,
2013-06-17 07:15:00,71.4,65.3,30.00,SSW,210,1.0,3.0,81,0.00,,,0.00,VWS V14.01,2013-06-17 11:15:00,
2013-06-17 07:20:00,71.5,65.4,30.00,WSW,241,0.0,3.0,81,0.00,,,0.00,VWS V14.01,2013-06-17 11:20:00,
2013-06-17 07:25:00,71.5,65.4,30.01,SW,226,1.0,3.0,81,0.00,,,0.00,VWS V14.01,2013-06-17 11:25:00,
2013-06-17 07:30:00,71.6,65.1,30.01,WSW,243,1.0,3.0,80,0.00,,,0.00,VWS V14.01,2013-06-17 11:30:00,
2013-06-17 07:35:00,72.0,65.5,30.01,SW,228,0.0,3.0,80,0.00,,,0.00,VWS V14.01,2013-06-17 11:35:00,
2013-06-17 07:40:00,72.4,65.5,30.01,West,260,1.0,3.0,79,0.00,,,0.00,VWS V14.01,2013-06-17 11:40:00,
2013-06-17 07:45:00,72.9,66.0,30.01,SW,219,2.0,3.0,79,0.00,,,0.00,VWS V14.01,2013-06-17 11:45:00,
2013-06-17 07:50:00,73.3,66.0,30.01,WSW,239,0.0,3.0,78,0.00,,,0.00,VWS V14.01,2013-06-17 11:50:00,
2013-06-17 07:55:00,73.8,66.5,30.01,WSW,250,1.0,3.0,78,0.00,,,0.00,VWS V14.01,2013-06-17 11:55:00,
2013-06-17 08:00:00,73.9,66.2,30.01,SSE,162,2.0,3.0,77,0.00,,,0.00,VWS V14.01,2013-06-17 12:00:00,
2013-06-17 08:05:00,73.9,66.2,30.01,WSW,237,0.0,4.0,77,0.00,,,0.00,VWS V14.01,2013-06-17 12:05:00,
2013-06-17 08:10:00,74.2,66.2,30.01,SSW,206,0.0,5.0,76,0.00,,,0.00,VWS V14.01,2013-06-17 12:10:00,
2013-06-17 08:15:00,74.2,66.2,30.01,WSW,244,1.0,5.0,76,0.00,,,0.00,VWS V14.01,2013-06-17 12:15:00,
2013-06-17 08:20:00,74.3,66.2,30.01,SW,227,0.0,5.0,76,0.00,,,0.00,VWS V14.01,2013-06-17 12:20:00,
2013-06-17 08:25:00,74.8,66.7,30.01,WSW,248,0.0,5.0,76,0.00,,,0.00,VWS V14.01,2013-06-17 12:25:00,
2013-06-17 08:30:00,74.9,66.4,30.00,WSW,243,4.0,5.0,75,0.00,,,0.00,VWS V14.01,2013-06-17 12:30:00,
2013-06-17 08:35:00,74.6,66.5,30.01,WSW,257,2.0,4.0,76,0.00,,,0.00,VWS V14.01,2013-06-17 12:35:00,
2013-06-17 08:40:00,74.4,66.3,30.01,West,261,1.0,5.0,76,0.00,,,0.00,VWS V14.01,2013-06-17 12:40:00,
2013-06-17 08:45:00,74.4,66.3,30.01,SW,221,1.0,5.0,76,0.00,,,0.00,VWS V14.01,2013-06-17 12:45:00,
2013-06-17 08:50:00,74.2,66.2,30.01,SW,225,1.0,5.0,76,0.00,,,0.00,VWS V14.01,2013-06-17 12:50:00,
2013-06-17 08:55:00,74.3,66.6,30.01,SW,236,4.0,5.0,77,0.00,,,0.00,VWS V14.01,2013-06-17 12:55:00,
2013-06-17 09:00:00,74.3,66.6,30.01,WSW,238,1.0,6.0,77,0.00,,,0.00,VWS V14.01,2013-06-17 13:00:00,
2013-06-17 09:05:00,74.4,66.7,30.00,WSW,254,1.0,3.0,77,0.00,,,0.00,VWS V14.01,2013-06-17 13:05:00,
2013-06-17 09:10:00,74.7,67.0,30.01,SW,222,0.0,3.0,77,0.00,,,0.00,VWS V14.01,2013-06-17 13:10:00,
2013-06-17 09:15:00,75.3,67.2,30.01,WSW,238,2.0,3.0,76,0.00,,,0.00,VWS V14.01,2013-06-17 13:15:00,
2013-06-17 09:20:00,75.3,67.2,30.01,WSW,244,2.0,4.0,76,0.00,,,0.00,VWS V14.01,2013-06-17 13:20:00,
2013-06-17 09:25:00,75.6,67.5,30.01,West,266,0.0,4.0,76,0.00,,,0.00,VWS V14.01,2013-06-17 13:25:00,
2013-06-17 09:30:00,75.8,67.3,30.01,South,182,2.0,5.0,75,0.00,,,0.00,VWS V14.01,2013-06-17 13:30:00,
2013-06-17 09:35:00,75.5,67.4,30.00,WSW,238,0.0,2.0,76,0.00,,,0.00,VWS V14.01,2013-06-17 13:35:00,
2013-06-17 09:40:00,76.0,67.9,30.00,SW,229,1.0,2.0,76,0.00,,,0.00,VWS V14.01,2013-06-17 13:40:00,
2013-06-17 09:45:00,76.2,68.1,30.00,WSW,244,1.0,2.0,76,0.00,,,0.00,VWS V14.01,2013-06-17 13:45:00,
2013-06-17 09:50:00,76.2,68.1,30.00,SSW,207,0.0,3.0,76,0.00,,,0.00,VWS V14.01,2013-06-17 13:50:00,
2013-06-17 09:55:00,76.1,68.0,30.00,WSW,237,0.0,3.0,76,0.00,,,0.00,VWS V14.01,2013-06-17 13:55:00,
2013-06-17 10:00:00,76.1,68.0,30.00,WSW,252,1.0,3.0,76,0.00,,,0.00,VWS V14.01,2013-06-17 14:00:00,
2013-06-17 10:05:00,76.2,68.5,30.00,SW,234,0.0,0.0,77,0.00,,,0.00,VWS V14.01,2013-06-17 14:05:00,
2013-06-17 10:10:00,76.6,68.9,30.00,WSW,242,0.0,2.0,77,0.00,,,0.00,VWS V14.01,2013-06-17 14:10:00,
2013-06-17 10:15:00,77.0,68.9,30.00,SW,236,0.0,2.0,76,0.00,,,0.00,VWS V14.01,2013-06-17 14:15:00,
2013-06-17 10:20:00,76.9,68.8,30.00,SW,232,0.0,2.0,76,0.00,,,0.00,VWS V14.01,2013-06-17 14:20:00,
2013-06-17 10:25:00,77.1,69.3,30.00,West,267,1.0,2.0,77,0.00,,,0.00,VWS V14.01,2013-06-17 14:25:00,
2013-06-17 10:30:00,77.2,69.4,30.00,SW,222,1.0,3.0,77,0.00,,,0.00,VWS V14.01,2013-06-17 14:30:00,
2013-06-17 10:35:00,77.3,69.5,30.00,SW,221,1.0,2.0,77,0.00,,,0.00,VWS V14.01,2013-06-17 14:35:00,
2013-06-17 10:40:00,77.6,69.4,30.00,SW,221,0.0,2.0,76,0.00,,,0.00,VWS V14.01,2013-06-17 14:40:00,
2013-06-17 10:45:00,77.6,69.8,30.00,WSW,238,0.0,3.0,77,0.00,,,0.00,VWS V14.01,2013-06-17 14:45:00,
2013-06-17 10:50:00,78.1,69.9,30.00,WSW,249,1.0,3.0,76,0.00,,,0.00,VWS V14.01,2013-06-17 14:50:00,
2013-06-17 10:55:00,78.2,69.6,30.00,SW,226,1.0,3.0,75,0.00,,,0.00,VWS V14.01,2013-06-17 14:55:00,
2013-06-17 11:00:00,78.2,69.6,30.00,WSW,249,1.0,4.0,75,0.00,,,0.00,VWS V14.01,2013-06-17 15:00:00,
2013-06-17 11:05:00,78.1,69.9,30.00,SW,233,1.0,3.0,76,0.00,,,0.00,VWS V14.01,2013-06-17 15:05:00,
2013-06-17 11:10:00,78.3,69.7,30.00,WSW,246,1.0,4.0,75,0.00,,,0.00,VWS V14.01,2013-06-17 15:10:00,
2013-06-17 11:15:00,78.5,69.9,30.00,NNW,342,0.0,4.0,75,0.00,,,0.00,VWS V14.01,2013-06-17 15:15:00,
2013-06-17 11:20:00,78.9,69.5,30.00,NNW,327,1.0,4.0,73,0.00,,,0.00,VWS V14.01,2013-06-17 15:20:00,
2013-06-17 11:25:00,78.9,69.9,30.00,SW,235,2.0,4.0,74,0.00,,,0.00,VWS V14.01,2013-06-17 15:25:00,
2013-06-17 11:30:00,79.2,70.2,30.00,WSW,257,0.0,4.0,74,0.00,,,0.00,VWS V14.01,2013-06-17 15:30:00,
2013-06-17 11:35:00,79.3,70.3,29.99,WSW,238,0.0,2.0,74,0.00,,,0.00,VWS V14.01,2013-06-17 15:35:00,
2013-06-17 11:40:00,79.5,70.1,29.99,WSW,245,1.0,3.0,73,0.00,,,0.00,VWS V14.01,2013-06-17 15:40:00,
2013-06-17 11:45:00,79.6,70.2,29.99,SW,217,1.0,3.0,73,0.00,,,0.00,VWS V14.01,2013-06-17 15:45:00,
2013-06-17 11:50:00,79.6,70.6,29.99,WNW,293,0.0,3.0,74,0.00,,,0.00,VWS V14.01,2013-06-17 15:50:00,
2013-06-17 11:55:00,80.1,70.7,29.99,WSW,239,0.0,3.0,73,0.00,,,0.00,VWS V14.01,2013-06-17 15:55:00,
2013-06-17 12:00:00,80.3,70.5,29.99,SW,233,2.0,4.0,72,0.00,,,0.00,VWS V14.01,2013-06-17 16:00:00,
2013-06-17 12:05:00,80.4,70.6,29.99,WSW,246,1.0,3.0,72,0.00,,,0.00,VWS V14.01,2013-06-17 16:05:00,
2013-06-17 12:10:00,80.6,71.2,29.99,West,269,0.0,4.0,73,0.00,,,0.00,VWS V14.01,2013-06-17 16:10:00,
2013-06-17 12:15:00,81.0,71.1,30.00,WNW,290,2.0,4.0,72,0.00,,,0.00,VWS V14.01,2013-06-17 16:15:00,
2013-06-17 12:20:00,80.7,70.8,30.00,WSW,237,0.0,5.0,72,0.00,,,0.00,VWS V14.01,2013-06-17 16:20:00,
2013-06-17 12:25:00,80.4,70.6,29.99,West,263,1.0,5.0,72,0.00,,,0.00,VWS V14.01,2013-06-17 16:25:00,
2013-06-17 12:30:00,80.3,70.9,29.99,SW,225,2.0,5.0,73,0.00,,,0.00,VWS V14.01,2013-06-17 16:30:00,
2013-06-17 12:35:00,80.4,71.4,29.99,WSW,248,1.0,3.0,74,0.00,,,0.00,VWS V14.01,2013-06-17 16:35:00,
2013-06-17 12:40:00,80.7,71.7,29.98,SW,214,0.0,3.0,74,0.00,,,0.00,VWS V14.01,2013-06-17 16:40:00,
2013-06-17 12:45:00,81.0,71.1,29.98,WSW,254,0.0,3.0,72,0.00,,,0.00,VWS V14.01,2013-06-17 16:45:00,
2013-06-17 12:50:00,80.9,71.4,29.98,WSW,245,0.0,3.0,73,0.00,,,0.00,VWS V14.01,2013-06-17 16:50:00,
2013-06-17 12:55:00,81.1,71.2,29.98,WNW,290,0.0,3.0,72,0.00,,,0.00,VWS V14.01,2013-06-17 16:55:00,
2013-06-17 13:00:00,81.1,71.2,29.98,WSW,254,2.0,3.0,72,0.00,,,0.00,VWS V14.01,2013-06-17 17:00:00,
2013-06-17 13:05:00,80.7,71.2,29.98,WSW,242,0.0,1.0,73,0.00,,,0.00,VWS V14.01,2013-06-17 17:05:00,
2013-06-17 13:10:00,80.7,71.2,29.98,WSW,252,1.0,2.0,73,0.00,,,0.00,VWS V14.01,2013-06-17 17:10:00,
2013-06-17 13:15:00,80.7,71.7,29.98,WSW,238,1.0,2.0,74,0.00,,,0.00,VWS V14.01,2013-06-17 17:15:00,
2013-06-17 13:20:00,80.8,71.7,29.98,WNW,296,1.0,3.0,74,0.00,,,0.00,VWS V14.01,2013-06-17 17:20:00,
2013-06-17 13:25:00,81.0,71.9,29.99,West,277,1.0,3.0,74,0.00,,,0.00,VWS V14.01,2013-06-17 17:25:00,
2013-06-17 13:30:00,80.8,71.7,29.99,West,281,1.0,3.0,74,0.00,,,0.00,VWS V14.01,2013-06-17 17:30:00,
2013-06-17 13:35:00,80.4,71.8,29.99,West,280,2.0,2.0,75,0.00,,,0.00,VWS V14.01,2013-06-17 17:35:00,
2013-06-17 13:40:00,80.3,72.1,29.98,WNW,293,1.0,2.0,76,0.00,,,0.00,VWS V14.01,2013-06-17 17:40:00,
2013-06-17 13:45:00,80.2,71.9,29.98,WNW,296,0.0,2.0,76,0.00,,,0.00,VWS V14.01,2013-06-17 17:45:00,
2013-06-17 13:50:00,80.4,72.5,29.98,West,281,0.0,2.0,77,0.00,,,0.00,VWS V14.01,2013-06-17 17:50:00,
2013-06-17 13:55:00,80.6,72.3,29.99,West,271,0.0,2.0,76,0.00,,,0.00,VWS V14.01,2013-06-17 17:55:00,
2013-06-17 14:00:00,80.5,72.2,29.98,WNW,301,1.0,2.0,76,0.00,,,0.00,VWS V14.01,2013-06-17 18:00:00,
2013-06-17 14:05:00,80.6,72.3,29.98,WNW,296,1.0,2.0,76,0.00,,,0.00,VWS V14.01,2013-06-17 18:05:00,
2013-06-17 14:10:00,80.5,72.2,29.98,NW,311,1.0,2.0,76,0.00,,,0.00,VWS V14.01,2013-06-17 18:10:00,
2013-06-17 14:15:00,80.5,72.2,29.98,NW,307,2.0,2.0,76,0.00,,,0.00,VWS V14.01,2013-06-17 18:15:00,
2013-06-17 14:20:00,80.4,72.2,29.98,NW,312,1.0,3.0,76,0.00,,,0.00,VWS V14.01,2013-06-17 18:20:00,
2013-06-17 14:25:00,80.7,72.4,29.97,West,275,1.0,3.0,76,0.00,,,0.00,VWS V14.01,2013-06-17 18:25:00,
2013-06-17 14:30:00,80.9,72.2,29.97,NW,320,0.0,3.0,75,0.00,,,0.00,VWS V14.01,2013-06-17 18:30:00,
2013-06-17 14:35:00,81.3,72.6,29.97,WNW,300,1.0,4.0,75,0.00,,,0.00,VWS V14.01,2013-06-17 18:35:00,
2013-06-17 14:40:00,82.1,73.4,29.97,SSE,157,0.0,4.0,75,0.00,,,0.00,VWS V14.01,2013-06-17 18:40:00,
2013-06-17 14:45:00,83.3,73.8,29.96,SE,145,2.0,4.0,73,0.00,,,0.00,VWS V14.01,2013-06-17 18:45:00,
2013-06-17 14:50:00,83.6,72.4,29.96,SW,232,2.0,6.0,69,0.00,,,0.00,VWS V14.01,2013-06-17 18:50:00,
2013-06-17 14:55:00,83.8,73.4,29.96,WSW,248,4.0,6.0,71,0.00,,,0.00,VWS V14.01,2013-06-17 18:55:00,
2013-06-17 15:00:00,83.7,72.5,29.96,SW,233,2.0,6.0,69,0.00,,,0.00,VWS V14.01,2013-06-17 19:00:00,
2013-06-17 15:05:00,83.5,72.7,29.95,SW,218,1.0,2.0,70,0.00,,,0.00,VWS V14.01,2013-06-17 19:05:00,
2013-06-17 15:10:00,83.7,72.5,29.95,WSW,239,0.0,3.0,69,0.00,,,0.00,VWS V14.01,2013-06-17 19:10:00,
2013-06-17 15:15:00,83.8,72.6,29.95,SW,232,0.0,3.0,69,0.00,,,0.00,VWS V14.01,2013-06-17 19:15:00,
2013-06-17 15:20:00,83.8,72.6,29.95,WSW,250,1.0,4.0,69,0.00,,,0.00,VWS V14.01,2013-06-17 19:20:00,
2013-06-17 15:25:00,83.9,72.2,29.95,WSW,245,0.0,4.0,68,0.00,,,0.00,VWS V14.01,2013-06-17 19:25:00,
2013-06-17 15:30:00,83.6,72.4,29.95,WSW,242,2.0,4.0,69,0.00,,,0.00,VWS V14.01,2013-06-17 19:30:00,
2013-06-17 15:35:00,83.4,71.7,29.95,WSW,237,1.0,2.0,68,0.00,,,0.00,VWS V14.01,2013-06-17 19:35:00,
2013-06-17 15:40:00,83.6,71.9,29.94,WSW,257,3.0,3.0,68,0.00,,,0.00,VWS V14.01,2013-06-17 19:40:00,
2013-06-17 15:45:00,83.9,71.8,29.94,SW,234,0.0,4.0,67,0.00,,,0.00,VWS V14.01,2013-06-17 19:45:00,
2013-06-17 15:50:00,84.3,72.2,29.94,SSW,205,0.0,4.0,67,0.00,,,0.00,VWS V14.01,2013-06-17 19:50:00,
2013-06-17 15:55:00,84.4,71.8,29.94,West,261,2.0,4.0,66,0.00,,,0.00,VWS V14.01,2013-06-17 19:55:00,
2013-06-17 16:00:00,84.6,72.0,29.94,WSW,244,2.0,4.0,66,0.00,,,0.00,VWS V14.01,2013-06-17 20:00:00,
2013-06-17 16:05:00,84.6,71.6,29.93,WSW,250,1.0,2.0,65,0.00,,,0.00,VWS V14.01,2013-06-17 20:05:00,
2013-06-17 16:10:00,84.7,71.6,29.93,WSW,254,0.0,2.0,65,0.00,,,0.00,VWS V14.01,2013-06-17 20:10:00,
2013-06-17 16:15:00,84.6,71.1,29.93,WSW,253,2.0,5.0,64,0.00,,,0.00,VWS V14.01,2013-06-17 20:15:00,
2013-06-17 16:20:00,84.7,70.2,29.93,SW,232,0.0,5.0,62,0.00,,,0.00,VWS V14.01,2013-06-17 20:20:00,
2013-06-17 16:25:00,84.7,71.2,29.92,SW,229,1.0,5.0,64,0.00,,,0.00,VWS V14.01,2013-06-17 20:25:00,
2013-06-17 16:30:00,84.8,70.8,29.92,SSW,203,0.0,5.0,63,0.00,,,0.00,VWS V14.01,2013-06-17 20:30:00,
2013-06-17 16:35:00,85.2,71.7,29.92,WSW,249,2.0,3.0,64,0.00,,,0.00,VWS V14.01,2013-06-17 20:35:00,
2013-06-17 16:40:00,85.2,71.2,29.92,NW,310,0.0,3.0,63,0.00,,,0.00,VWS V14.01,2013-06-17 20:40:00,
2013-06-17 16:45:00,85.4,71.4,29.92,WSW,244,1.0,3.0,63,0.00,,,0.00,VWS V14.01,2013-06-17 20:45:00,
2013-06-17 16:50:00,85.2,71.7,29.92,SSW,213,2.0,3.0,64,0.00,,,0.00,VWS V14.01,2013-06-17 20:50:00,
2013-06-17 16:55:00,85.1,70.6,29.92,WSW,258,1.0,3.0,62,0.00,,,0.00,VWS V14.01,2013-06-17 20:55:00,
2013-06-17 17:00:00,84.9,70.9,29.92,SE,144,2.0,3.0,63,0.00,,,0.00,VWS V14.01,2013-06-17 21:00:00,
2013-06-17 17:05:00,85.2,71.2,29.92,SW,236,2.0,2.0,63,0.00,,,0.00,VWS V14.01,2013-06-17 21:05:00,
2013-06-17 17:10:00,85.2,70.7,29.92,WSW,244,1.0,3.0,62,0.00,,,0.00,VWS V14.01,2013-06-17 21:10:00,
2013-06-17 17:15:00,85.1,70.2,29.92,WSW,242,0.0,3.0,61,0.00,,,0.00,VWS V14.01,2013-06-17 21:15:00,
2013-06-17 17:20:00,85.3,70.8,29.92,WSW,238,1.0,3.0,62,0.00,,,0.00,VWS V14.01,2013-06-17 21:20:00,
2013-06-17 17:25:00,85.2,70.2,29.92,West,260,1.0,3.0,61,0.00,,,0.00,VWS V14.01,2013-06-17 21:25:00,
2013-06-17 17:30:00,85.0,69.6,29.92,WSW,238,2.0,3.0,60,0.00,,,0.00,VWS V14.01,2013-06-17 21:30:00,
2013-06-17 17:35:00,84.8,68.9,29.92,WSW,244,0.0,2.0,59,0.00,,,0.00,VWS V14.01,2013-06-17 21:35:00,
2013-06-17 17:40:00,84.9,69.5,29.91,WSW,253,1.0,3.0,60,0.00,,,0.00,VWS V14.01,2013-06-17 21:40:00,
2013-06-17 17:45:00,85.1,70.6,29.91,SW,218,0.0,3.0,62,0.00,,,0.00,VWS V14.01,2013-06-17 21:45:00,
2013-06-17 17:50:00,85.0,70.5,29.91,SW,226,1.0,3.0,62,0.00,,,0.00,VWS V14.01,2013-06-17 21:50:00,
2013-06-17 17:55:00,84.8,70.8,29.91,WSW,238,1.0,3.0,63,0.00,,,0.00,VWS V14.01,2013-06-17 21:55:00,
2013-06-17 18:00:00,84.8,69.4,29.91,WSW,238,1.0,3.0,60,0.00,,,0.00,VWS V14.01,2013-06-17 22:00:00,
2013-06-17 18:05:00,84.5,69.1,29.91,SW,233,1.0,1.0,60,0.00,,,0.00,VWS V14.01,2013-06-17 22:05:00,
2013-06-17 18:10:00,84.6,70.6,29.91,WSW,245,1.0,2.0,63,0.00,,,0.00,VWS V14.01,2013-06-17 22:10:00,
2013-06-17 18:15:00,84.5,70.5,29.92,SW,219,1.0,3.0,63,0.00,,,0.00,VWS V14.01,2013-06-17 22:15:00,
2013-06-17 18:20:00,84.3,70.8,29.92,WSW,241,0.0,3.0,64,0.00,,,0.00,VWS V14.01,2013-06-17 22:20:00,
2013-06-17 18:25:00,83.9,70.9,29.92,WSW,248,1.0,3.0,65,0.00,,,0.00,VWS V14.01,2013-06-17 22:25:00,
2013-06-17 18:30:00,83.6,71.1,29.92,SE,139,0.0,3.0,66,0.00,,,0.00,VWS V14.01,2013-06-17 22:30:00,
2013-06-17 18:35:00,83.4,70.9,29.92,WSW,241,1.0,2.0,66,0.00,,,0.00,VWS V14.01,2013-06-17 22:35:00,
2013-06-17 18:40:00,83.3,71.2,29.92,SW,230,0.0,2.0,67,0.00,,,0.00,VWS V14.01,2013-06-17 22:40:00,
2013-06-17 18:45:00,83.1,71.0,29.92,SW,230,3.0,3.0,67,0.00,,,0.00,VWS V14.01,2013-06-17 22:45:00,
2013-06-17 18:50:00,82.9,70.4,29.92,WSW,241,2.0,3.0,66,0.00,,,0.00,VWS V14.01,2013-06-17 22:50:00,
2013-06-17 18:55:00,82.9,70.8,29.92,SSW,199,0.0,3.0,67,0.00,,,0.00,VWS V14.01,2013-06-17 22:55:00,
2013-06-17 19:00:00,82.9,71.3,29.92,SE,129,0.0,3.0,68,0.00,,,0.00,VWS V14.01,2013-06-17 23:00:00,
2013-06-17 19:05:00,82.8,70.7,29.92,SW,221,1.0,3.0,67,0.00,,,0.00,VWS V14.01,2013-06-17 23:05:00,
2013-06-17 19:10:00,82.6,71.0,29.92,SW,221,1.0,3.0,68,0.00,,,0.00,VWS V14.01,2013-06-17 23:10:00,
2013-06-17 19:15:00,82.5,70.9,29.92,SW,227,1.0,3.0,68,0.00,,,0.00,VWS V14.01,2013-06-17 23:15:00,
2013-06-17 19:20:00,82.4,71.2,29.92,South,183,0.0,3.0,69,0.00,,,0.00,VWS V14.01,2013-06-17 23:20:00,
2013-06-17 19:25:00,82.3,71.1,29.92,SW,225,0.0,3.0,69,0.00,,,0.00,VWS V14.01,2013-06-17 23:25:00,
2013-06-17 19:30:00,82.1,71.3,29.91,SW,225,1.0,4.0,70,0.00,,,0.00,VWS V14.01,2013-06-17 23:30:00,
2013-06-17 19:35:00,81.9,71.2,29.91,WSW,237,0.0,2.0,70,0.00,,,0.00,VWS V14.01,2013-06-17 23:35:00,
2013-06-17 19:40:00,81.7,71.0,29.90,WSW,252,0.0,5.0,70,0.00,,,0.00,VWS V14.01,2013-06-17 23:40:00,
2013-06-17 19:45:00,81.6,70.9,29.91,SW,234,0.0,5.0,70,0.00,,,0.00,VWS V14.01,2013-06-17 23:45:00,
2013-06-17 19:50:00,81.4,71.1,29.91,SE,146,1.0,5.0,71,0.00,,,0.00,VWS V14.01,2013-06-17 23:50:00,
2013-06-17 19:55:00,81.1,70.8,29.91,SSE,157,1.0,5.0,71,0.00,,,0.00,VWS V14.01,2013-06-17 23:55:00,
2013-06-17 20:00:00,80.8,70.9,29.91,SE,134,0.0,5.0,72,0.00,,,0.00,VWS V14.01,2013-06-18 00:00:00,
2013-06-17 20:05:00,80.5,71.1,29.91,West,264,0.0,2.0,73,0.00,,,0.00,VWS V14.01,2013-06-18 00:05:00,
2013-06-17 20:10:00,80.4,71.0,29.92,SW,222,0.0,2.0,73,0.00,,,0.00,VWS V14.01,2013-06-18 00:10:00,
2013-06-17 20:15:00,80.4,71.4,29.92,ESE,118,4.0,4.0,74,0.00,,,0.00,VWS V14.01,2013-06-18 00:15:00,
2013-06-17 20:20:00,80.1,71.1,29.92,ESE,122,2.0,4.0,74,0.00,,,0.00,VWS V14.01,2013-06-18 00:20:00,
2013-06-17 20:25:00,79.9,71.3,29.92,SE,134,2.0,5.0,75,0.00,,,0.00,VWS V14.01,2013-06-18 00:25:00,
2013-06-17 20:30:00,79.7,71.5,29.92,SSE,157,2.0,5.0,76,0.00,,,0.00,VWS V14.01,2013-06-18 00:30:00,
2013-06-17 20:35:00,79.5,71.3,29.92,ENE,67,1.0,3.0,76,0.00,,,0.00,VWS V14.01,2013-06-18 00:35:00,
2013-06-17 20:40:00,79.5,71.7,29.92,South,175,1.0,6.0,77,0.00,,,0.00,VWS V14.01,2013-06-18 00:40:00,
2013-06-17 20:45:00,79.4,71.6,29.92,SSE,148,1.0,6.0,77,0.00,,,0.00,VWS V14.01,2013-06-18 00:45:00,
2013-06-17 20:50:00,79.4,71.9,29.92,ESE,103,1.0,6.0,78,0.00,,,0.00,VWS V14.01,2013-06-18 00:50:00,
2013-06-17 20:55:00,79.3,71.8,29.92,SE,146,6.0,7.0,78,0.00,,,0.00,VWS V14.01,2013-06-18 00:55:00,
2013-06-17 21:00:00,79.2,71.8,29.93,WSW,244,1.0,7.0,78,0.00,,,0.00,VWS V14.01,2013-06-18 01:00:00,
2013-06-17 21:05:00,79.1,71.7,29.93,SE,142,4.0,4.0,78,0.00,,,0.00,VWS V14.01,2013-06-18 01:05:00,
2013-06-17 21:10:00,78.9,71.5,29.92,WSW,241,3.0,5.0,78,0.00,,,0.00,VWS V14.01,2013-06-18 01:10:00,
2013-06-17 21:15:00,78.7,71.3,29.93,SW,232,0.0,5.0,78,0.00,,,0.00,VWS V14.01,2013-06-18 01:15:00,
2013-06-17 21:20:00,78.6,71.2,29.93,SE,142,2.0,5.0,78,0.00,,,0.00,VWS V14.01,2013-06-18 01:20:00,
2013-06-17 21:25:00,78.5,71.4,29.93,SSW,205,1.0,6.0,79,0.00,,,0.00,VWS V14.01,2013-06-18 01:25:00,
2013-06-17 21:30:00,78.4,71.3,29.94,WSW,242,0.0,6.0,79,0.00,,,0.00,VWS V14.01,2013-06-18 01:30:00,
2013-06-17 21:35:00,78.3,71.3,29.94,WSW,250,2.0,3.0,79,0.00,,,0.00,VWS V14.01,2013-06-18 01:35:00,
2013-06-17 21:40:00,78.1,71.1,29.94,SSW,205,1.0,4.0,79,0.00,,,0.00,VWS V14.01,2013-06-18 01:40:00,
2013-06-17 21:45:00,77.9,71.2,29.94,SSE,163,0.0,4.0,80,0.00,,,0.00,VWS V14.01,2013-06-18 01:45:00,
2013-06-17 21:50:00,77.7,71.4,29.94,South,172,2.0,5.0,81,0.00,,,0.00,VWS V14.01,2013-06-18 01:50:00,
2013-06-17 21:55:00,77.4,71.1,29.94,SSW,209,2.0,5.0,81,0.00,,,0.00,VWS V14.01,2013-06-18 01:55:00,
2013-06-17 22:00:00,77.1,71.2,29.94,East,97,2.0,5.0,82,0.00,,,0.00,VWS V14.01,2013-06-18 02:00:00,
2013-06-17 22:05:00,77.0,71.1,29.95,SSE,153,1.0,2.0,82,0.00,,,0.00,VWS V14.01,2013-06-18 02:05:00,
2013-06-17 22:10:00,76.8,71.2,29.94,West,273,1.0,4.0,83,0.00,,,0.00,VWS V14.01,2013-06-18 02:10:00,
2013-06-17 22:15:00,76.7,71.2,29.94,WSW,243,1.0,4.0,83,0.00,,,0.00,VWS V14.01,2013-06-18 02:15:00,
2013-06-17 22:20:00,76.6,71.4,29.95,WSW,241,2.0,4.0,84,0.00,,,0.00,VWS V14.01,2013-06-18 02:20:00,
2013-06-17 22:25:00,76.5,71.3,29.95,SE,141,0.0,4.0,84,0.00,,,0.00,VWS V14.01,2013-06-18 02:25:00,
2013-06-17 22:30:00,76.4,71.6,29.95,WSW,246,1.0,4.0,85,0.00,,,0.00,VWS V14.01,2013-06-18 02:30:00,
2013-06-17 22:35:00,76.4,71.6,29.95,SSE,148,1.0,3.0,85,0.00,,,0.00,VWS V14.01,2013-06-18 02:35:00,
2013-06-17 22:40:00,76.2,71.7,29.95,South,169,0.0,6.0,86,0.00,,,0.00,VWS V14.01,2013-06-18 02:40:00,
2013-06-17 22:45:00,76.0,71.5,29.95,SSE,150,4.0,6.0,86,0.00,,,0.00,VWS V14.01,2013-06-18 02:45:00,
2013-06-17 22:50:00,75.8,71.7,29.95,SW,229,0.0,6.0,87,0.00,,,0.00,VWS V14.01,2013-06-18 02:50:00,
2013-06-17 22:55:00,75.7,71.6,29.95,SW,226,0.0,6.0,87,0.00,,,0.00,VWS V14.01,2013-06-18 02:55:00,
2013-06-17 23:00:00,75.7,71.6,29.95,SSE,159,0.0,6.0,87,0.00,,,0.00,VWS V14.01,2013-06-18 03:00:00,
2013-06-17 23:05:00,75.7,71.6,29.95,SE,139,1.0,1.0,87,0.00,,,0.00,VWS V14.01,2013-06-18 03:05:00,
2013-06-17 23:10:00,75.6,71.5,29.95,SW,223,1.0,7.0,87,0.00,,,0.00,VWS V14.01,2013-06-18 03:10:00,
2013-06-17 23:15:00,75.5,71.7,29.95,SSW,209,1.0,7.0,88,0.00,,,0.00,VWS V14.01,2013-06-18 03:15:00,
2013-06-17 23:20:00,75.4,71.6,29.95,WSW,239,0.0,7.0,88,0.00,,,0.00,VWS V14.01,2013-06-18 03:20:00,
2013-06-17 23:25:00,75.3,71.8,29.95,South,175,0.0,7.0,89,0.00,,,0.00,VWS V14.01,2013-06-18 03:25:00,
2013-06-17 23:30:00,75.2,71.7,29.95,WSW,241,1.0,7.0,89,0.00,,,0.00,VWS V14.01,2013-06-18 03:30:00,
2013-06-17 23:35:00,75.1,71.6,29.95,SW,224,1.0,2.0,89,0.00,,,0.00,VWS V14.01,2013-06-18 03:35:00,
2013-06-17 23:40:00,75.0,71.5,29.95,SW,229,1.0,2.0,89,0.00,,,0.00,VWS V14.01,2013-06-18 03:40:00,
2013-06-17 23:45:00,74.9,71.4,29.95,WSW,237,0.0,2.0,89,0.00,,,0.00,VWS V14.01,2013-06-18 03:45:00,
2013-06-17 23:50:00,74.8,71.3,29.95,SW,234,0.0,2.0,89,0.00,,,0.00,VWS V14.01,2013-06-18 03:50:00,
2013-06-17 23:55:00,74.7,71.2,29.95,SSW,213,1.0,2.0,89,0.00,,,0.00,VWS V14.01,2013-06-18 03:55:00,